| time (UTC) | temp F | wind direction | speed knots | gust knots | rain 1hr in | rain 24hr in | rain mn in | humidity % | barometer mb |
| 20260510234523 | 78 | 232 | 2.6 | 7.8 | 0.00 | 0.00 | 0.00 | 31 | 1013.1 |
| 20260510233023 | 79 | 159 | 2.6 | 7.8 | 0.00 | 0.00 | 0.00 | 31 | 1013.2 |
| 20260510231530 | 80 | 85 | 0.0 | 2.6 | 0.00 | 0.00 | 0.00 | 30 | 1013.2 |
| 20260510230019 | 78 | 106 | 1.7 | 5.2 | 0.00 | 0.00 | 0.00 | 31 | 1013.2 |
| 20260510224516 | 78 | 47 | 0.9 | 3.5 | 0.00 | 0.00 | 0.00 | 30 | 1013.2 |
| 20260510223013 | 78 | 26 | 0.0 | 3.5 | 0.00 | 0.00 | 0.00 | 31 | 1013.4 |
| 20260510161510 | 58 | 112 | 0.9 | 4.3 | 0.00 | 0.00 | 0.00 | 61 | 1015.3 |
| 20260510160006 | 57 | 113 | 1.7 | 3.5 | 0.00 | 0.00 | 0.00 | 62 | 1015.3 |
| 20260510154503 | 57 | 105 | 0.9 | 2.6 | 0.00 | 0.00 | 0.00 | 63 | 1015.4 |
| 20260510153103 | 56 | 108 | 1.7 | 3.5 | 0.00 | 0.00 | 0.00 | 63 | 1015.5 |
| 20260510151559 | 55 | 98 | 0.9 | 3.5 | 0.00 | 0.00 | 0.00 | 65 | 1015.3 |
| 20260510150124 | 55 | 93 | 0.0 | 2.6 | 0.00 | 0.00 | 0.00 | 65 | 1015.3 |
| 20260510144559 | 53 | 102 | 0.9 | 2.6 | 0.00 | 0.00 | 0.00 | 67 | 1015.2 |
| 20260510143101 | 52 | 104 | 0.9 | 3.5 | 0.00 | 0.00 | 0.00 | 69 | 1015.6 |
| 20260510141557 | 50 | 103 | 0.0 | 1.7 | 0.00 | 0.00 | 0.00 | 73 | 1015.5 |
| 20260510140057 | 49 | 96 | 0.0 | 0.0 | 0.00 | 0.00 | 0.00 | 75 | 1015.3 |
| 20260510134558 | 48 | 96 | 0.0 | 0.9 | 0.00 | 0.00 | 0.00 | 73 | 1015.3 |
| 20260510133057 | 47 | 96 | 0.0 | 0.9 | 0.00 | 0.00 | 0.00 | 75 | 1015.6 |
| 20260510131557 | 46 | 96 | 0.0 | 0.9 | 0.00 | 0.00 | 0.00 | 77 | 1015.6 |
| 20260510130053 | 45 | 113 | 0.0 | 0.9 | 0.00 | 0.00 | 0.00 | 78 | 1015.5 |
| 20260510124602 | 45 | 113 | 0.0 | 0.0 | 0.00 | 0.00 | 0.00 | 76 | 1015.5 |
| 20260510123053 | 46 | 113 | 0.0 | 1.7 | 0.00 | 0.00 | 0.00 | 76 | 1015.5 |
| 20260510121551 | 46 | 113 | 0.9 | 1.7 | 0.00 | 0.00 | 0.00 | 77 | 1015.4 |
| 20260510120048 | 46 | 106 | 0.0 | 0.9 | 0.00 | 0.00 | 0.00 | 76 | 1015.2 |
| 20260510114550 | 47 | 105 | 0.0 | 0.9 | 0.00 | 0.00 | 0.00 | 75 | 1015.2 |
| 20260510113041 | 47 | 106 | 0.0 | 0.9 | 0.00 | 0.00 | 0.00 | 75 | 1015.3 |
| 20260510111540 | 48 | 105 | 0.0 | 0.9 | 0.00 | 0.00 | 0.00 | 74 | 1015.5 |
| 20260510110040 | 48 | 109 | 0.0 | 0.9 | 0.00 | 0.00 | 0.00 | 73 | 1015.5 |
| 20260510104535 | 49 | 108 | 0.0 | 1.7 | 0.00 | 0.00 | 0.00 | 73 | 1015.5 |
| 20260510103037 | 49 | 109 | 0.0 | 1.7 | 0.00 | 0.00 | 0.00 | 73 | 1015.6 |
| 20260510101533 | 49 | 109 | 0.0 | 0.9 | 0.00 | 0.00 | 0.00 | 74 | 1015.5 |
| 20260510100033 | 49 | 108 | 0.0 | 0.0 | 0.00 | 0.00 | 0.00 | 75 | 1015.6 |
| 20260510094541 | 49 | 108 | 0.0 | 0.0 | 0.00 | 0.00 | 0.00 | 73 | 1015.7 |
| 20260510093025 | 50 | 109 | 0.0 | 0.0 | 0.00 | 0.00 | 0.00 | 71 | 1015.8 |
| 20260510091527 | 51 | 109 | 0.0 | 0.9 | 0.00 | 0.00 | 0.00 | 70 | 1016.0 |
| 20260510090023 | 51 | 109 | 0.0 | 0.9 | 0.00 | 0.00 | 0.00 | 69 | 1016.0 |
| 20260510084521 | 52 | 108 | 0.0 | 0.0 | 0.00 | 0.00 | 0.00 | 69 | 1016.0 |
| 20260510083023 | 52 | 109 | 0.0 | 0.9 | 0.00 | 0.00 | 0.00 | 68 | 1016.1 |
| 20260510081513 | 53 | 109 | 0.0 | 0.9 | 0.00 | 0.00 | 0.00 | 65 | 1016.2 |
| 20260510080021 | 54 | 109 | 0.0 | 0.9 | 0.00 | 0.00 | 0.00 | 64 | 1016.4 |
| 20260510074508 | 54 | 109 | 0.0 | 0.9 | 0.00 | 0.00 | 0.00 | 64 | 1016.3 |
| 20260510073016 | 55 | 109 | 0.0 | 1.7 | 0.00 | 0.00 | 0.00 | 63 | 1016.3 |
| 20260510071505 | 55 | 109 | 0.0 | 0.0 | 0.00 | 0.00 | 0.00 | 62 | 1016.3 |
| 20260510070002 | 56 | 108 | 0.0 | 0.9 | 0.00 | 0.00 | 0.00 | 62 | 1016.4 |
| 20260510064502 | 56 | 109 | 0.0 | 0.9 | 0.00 | 0.00 | 0.00 | 60 | 1016.5 |
| 20260510063004 | 59 | 109 | 0.0 | 0.9 | 0.00 | 0.00 | 0.00 | 57 | 1016.5 |
| 20260510061505 | 60 | 108 | 0.0 | 0.9 | 0.00 | 0.00 | 0.00 | 53 | 1016.4 |
| 20260510060100 | 62 | 109 | 0.0 | 0.9 | 0.00 | 0.00 | 0.00 | 48 | 1016.4 |
| 20260510054600 | 62 | 335 | 0.0 | 0.9 | 0.00 | 0.00 | 0.00 | 44 | 1016.4 |
| 20260510053059 | 63 | 335 | 0.0 | 0.0 | 0.00 | 0.00 | 0.00 | 40 | 1016.4 |
| 20260510051605 | 64 | 335 | 0.0 | 1.7 | 0.00 | 0.00 | 0.00 | 40 | 1016.2 |
| 20260510050058 | 65 | 317 | 0.0 | 1.7 | 0.00 | 0.00 | 0.00 | 39 | 1016.3 |
| 20260510044617 | 66 | 263 | 0.9 | 3.5 | 0.00 | 0.00 | 0.00 | 38 | 1016.3 |
| 20260510043058 | 67 | 218 | 1.7 | 4.3 | 0.00 | 0.00 | 0.00 | 37 | 1016.2 |
| 20260510041556 | 68 | 263 | 0.9 | 4.3 | 0.00 | 0.00 | 0.00 | 36 | 1016.2 |
| 20260510040057 | 68 | 242 | 0.0 | 3.5 | 0.00 | 0.00 | 0.00 | 38 | 1016.1 |
| 20260510034555 | 69 | 264 | 0.0 | 3.5 | 0.00 | 0.00 | 0.00 | 37 | 1015.9 |
| 20260510033107 | 69 | 44 | 0.0 | 0.0 | 0.00 | 0.00 | 0.00 | 36 | 1015.9 |
| 20260510031555 | 70 | 44 | 0.0 | 0.0 | 0.00 | 0.00 | 0.00 | 34 | 1015.8 |
| 20260510024555 | 73 | 44 | 0.0 | 0.9 | 0.00 | 0.00 | 0.00 | 30 | 1015.6 |
| 20260510023053 | 74 | 44 | 0.0 | 0.9 | 0.00 | 0.00 | 0.00 | 31 | 1015.6 |
| 20260510021558 | 75 | 44 | 0.0 | 1.7 | 0.00 | 0.00 | 0.00 | 30 | 1015.7 |
| 20260510020051 | 76 | 41 | 0.0 | 1.7 | 0.00 | 0.00 | 0.00 | 28 | 1015.6 |
| 20260510014550 | 77 | 88 | 0.0 | 0.9 | 0.00 | 0.00 | 0.00 | 28 | 1015.5 |
| 20260510013049 | 77 | 231 | 0.9 | 1.7 | 0.00 | 0.00 | 0.00 | 27 | 1015.9 |
| 20260510011548 | 77 | 100 | 0.0 | 0.9 | 0.00 | 0.00 | 0.00 | 28 | 1016.1 |
| 20260510010045 | 77 | 215 | 0.9 | 2.6 | 0.00 | 0.00 | 0.00 | 28 | 1016.1 |
| 20260510004548 | 78 | 328 | 1.7 | 2.6 | 0.00 | 0.00 | 0.00 | 28 | 1016.1 |
| 20260510003043 | 76 | 249 | 0.9 | 5.2 | 0.00 | 0.00 | 0.00 | 29 | 1016.2 |
| 20260510001540 | 77 | 295 | 0.9 | 3.5 | 0.00 | 0.00 | 0.00 | 30 | 1016.3 |
| 20260510000042 | 76 | 39 | 0.0 | 4.3 | 0.00 | 0.00 | 0.00 | 30 | 1016.5 |